GW1299 Weather Reports


Display with metric or nautical units.
time (UTC)temp
F
wind
direction
speed
MPH
gust
MPH
rain 1hr
in
rain 24hr
in
rain mn
in
humidity
%
barometer
mb
20260507084534 54 285 0.0 2.0 0.00 0.22 0.07 86 1011.5
20260507083036 54 274 1.0 2.0 0.00 0.22 0.07 85 1011.6
20260507081536 54 309 0.0 3.0 0.00 0.22 0.07 84 1011.2
20260507080030 55 345 1.0 7.0 0.00 0.22 0.07 82 1011.0
20260507074526 55 212 2.0 7.0 0.00 0.22 0.07 86 1010.8
20260507073024 56 1 2.0 5.0 0.00 0.22 0.07 87 1010.6
20260507071527 56 293 1.0 5.0 0.01 0.22 0.07 87 1010.5
20260507070023 56 355 2.0 9.0 0.01 0.22 0.07 87 1010.4
20260507064521 56 318 2.0 7.0 0.01 0.22 0.07 89 1010.5
20260507063021 56 345 2.0 6.0 0.01 0.22 0.07 89 1010.3
20260507061519 57 278 0.0 8.0 0.01 0.21 0.06 88 1010.3
20260507060021 57 284 1.0 6.0 0.03 0.21 0.06 88 1010.3
20260507054512 57 260 2.0 7.0 0.03 0.21 0.06 87 1010.6
20260507053009 58 270 1.0 3.0 0.06 0.21 0.06 85 1010.2
20260507051505 60 293 3.0 9.0 0.05 0.20 0.05 82 1010.8
20260507050007 61 269 2.0 9.0 0.03 0.18 0.03 85 1010.7
20260507044559 61 293 0.0 2.0 0.03 0.18 0.03 83 1010.5
20260507043100 63 269 1.0 6.0 0.00 0.15 0.00 77 1010.7
20260507041602 63 301 1.0 7.0 0.00 0.15 0.00 76 1010.2
20260507040055 63 279 1.0 5.0 0.01 0.15 0.00 76 1009.7
20260507034549 63 249 1.0 7.0 0.01 0.15 0.15 78 1010.0
20260507033047 63 273 2.0 7.0 0.01 0.15 0.15 81 1010.0
20260507031546 64 294 2.0 8.0 0.01 0.15 0.15 83 1009.7
20260507030045 67 268 2.0 8.0 0.00 0.14 0.14 80 1009.7
20260507024545 67 295 4.0 7.0 0.00 0.14 0.14 79 1009.4
20260507023054 67 282 1.0 3.0 0.00 0.14 0.14 79 1009.1
20260507021550 67 280 2.0 7.0 0.00 0.14 0.14 79 1009.0
20260507020044 67 112 0.0 2.0 0.00 0.14 0.14 80 1008.9
20260507014555 68 112 0.0 2.0 0.00 0.14 0.14 79 1008.8
20260507013058 68 100 0.0 2.0 0.00 0.14 0.14 79 1009.1
20260507011542 68 96 0.0 2.0 0.00 0.14 0.14 78 1009.3
20260507010042 68 93 0.0 2.0 0.00 0.14 0.14 78 1009.3
20260507004541 68 93 0.0 2.0 0.00 0.14 0.14 78 1008.9
20260507003040 68 93 0.0 2.0 0.00 0.14 0.14 78 1008.8
20260507001555 68 93 0.0 2.0 0.00 0.14 0.14 77 1008.8
20260507000040 68 32 0.0 2.0 0.00 0.14 0.14 77 1008.8
20260506234538 68 70 0.0 2.0 0.00 0.14 0.14 76 1008.6
20260506233044 69 83 0.0 2.0 0.00 0.14 0.14 76 1008.5
20260506231541 69 116 0.0 3.0 0.00 0.14 0.14 74 1008.3
20260506230037 69 70 1.0 4.0 0.00 0.14 0.14 74 1008.2
20260506224537 69 104 1.0 3.0 0.00 0.14 0.14 74 1008.2
20260506223035 70 103 0.0 3.0 0.00 0.14 0.14 74 1008.3
20260506221535 70 154 0.0 2.0 0.00 0.14 0.14 74 1008.3
20260506220035 70 85 0.0 3.0 0.00 0.14 0.14 73 1008.2
20260506214533 70 78 1.0 5.0 0.00 0.14 0.14 73 1008.4
20260506213036 71 119 1.0 5.0 0.00 0.14 0.14 71 1008.1
20260506211532 71 79 0.0 6.0 0.00 0.14 0.14 73 1007.9
20260506210037 72 49 0.0 6.0 0.00 0.14 0.14 72 1007.9
20260506204530 71 138 0.0 4.0 0.00 0.14 0.14 73 1007.6
20260506203037 72 108 0.0 4.0 0.00 0.14 0.14 72 1007.8
20260506201529 71 311 1.0 8.0 0.00 0.14 0.14 72 1007.8
20260506200027 71 116 1.0 5.0 0.00 0.14 0.14 73 1007.8
20260506194525 70 72 2.0 8.0 0.00 0.14 0.14 73 1007.8
20260506193024 71 90 1.0 6.0 0.00 0.14 0.14 71 1007.9
20260506191522 71 76 1.0 6.0 0.00 0.14 0.14 72 1008.0
20260506190020 70 106 0.0 6.0 0.00 0.14 0.14 74 1008.1
20260506184520 69 99 0.0 5.0 0.00 0.14 0.14 74 1008.4
20260506183016 69 51 0.0 7.0 0.00 0.14 0.14 75 1008.5
20260506181519 69 87 1.0 10.0 0.00 0.14 0.14 75 1008.6
20260506180022 68 112 2.0 11.0 0.00 0.14 0.14 76 1008.9
20260506174512 67 85 2.0 7.0 0.00 0.14 0.14 77 1008.8
20260506173010 67 48 1.0 10.0 0.00 0.14 0.14 80 1008.8
20260506171509 66 224 3.0 7.0 0.00 0.14 0.14 81 1009.1
20260506170008 66 81 2.0 8.0 0.00 0.14 0.14 82 1009.0
20260506164506 64 281 1.0 11.0 0.00 0.14 0.14 85 1009.2
20260506163014 64 339 1.0 6.0 0.01 0.14 0.14 87 1009.1
20260506161510 63 88 2.0 4.0 0.01 0.14 0.14 88 1009.2
20260506160005 62 360 1.0 5.0 0.02 0.14 0.14 89 1009.6
20260506154501 62 154 2.0 7.0 0.03 0.14 0.14 89 1009.7
20260506153059 62 91 1.0 4.0 0.07 0.13 0.13 89 1009.3
20260506151558 61 336 1.0 5.0 0.09 0.13 0.13 89 1010.1
20260506150104 62 66 1.0 4.0 0.09 0.12 0.12 89 1010.3
20260506144555 61 295 1.0 9.0 0.10 0.11 0.11 88 1010.4
20260506143052 62 100 0.0 4.0 0.06 0.06 0.06 86 1010.4
20260506141551 62 123 1.0 5.0 0.04 0.04 0.04 85 1010.3
20260506140049 63 7 0.0 3.0 0.02 0.02 0.02 82 1010.5
20260506134610 64 81 1.0 4.0 0.01 0.01 0.01 79 1010.7
20260506133043 64 111 1.0 6.0 0.00 0.00 0.00 76 1010.7
20260506131600 64 81 0.0 6.0 0.00 0.00 0.00 76 1010.3
20260506130041 65 111 1.0 7.0 0.00 0.00 0.00 75 1010.1
20260506124539 65 122 1.0 5.0 0.00 0.00 0.00 74 1010.1
20260506123044 65 89 1.0 3.0 0.00 0.00 0.00 73 1010.4
20260506121604 65 134 1.0 6.0 0.00 0.00 0.00 72 1010.5
20260506120053 66 83 1.0 8.0 0.00 0.00 0.00 72 1010.5
20260506114554 66 27 1.0 6.0 0.00 0.00 0.00 71 1010.2
20260506113050 66 71 3.0 8.0 0.00 0.00 0.00 70 1010.0
20260506111607 66 89 2.0 6.0 0.00 0.00 0.00 71 1009.9
20260506110051 65 120 1.0 4.0 0.00 0.00 0.00 72 1009.8
20260506104545 65 99 1.0 8.0 0.00 0.00 0.00 72 1009.8
20260506103045 65 72 1.0 6.0 0.00 0.00 0.00 72 1009.7
20260506101542 65 37 2.0 5.0 0.00 0.00 0.00 72 1009.7
20260506100042 65 46 1.0 5.0 0.00 0.00 0.00 72 1009.6
20260506094541 65 66 2.0 5.0 0.00 0.00 0.00 72 1009.8
20260506093039 65 227 1.0 5.0 0.00 0.00 0.00 72 1009.8
20260506091540 65 10 1.0 9.0 0.00 0.00 0.00 71 1009.8
20260506090036 66 109 0.0 4.0 0.00 0.00 0.00 71 1009.8